CAS-5A (FO-118)

Last updated on Thu Mar 06 2025 00:03:03 GMT+0000 (Coordinated Universal Time)

1 54684U 22167C 25064.43700242 .07053685 26122-5 12319-2 0 9994 2 54684 97.5873 230.4543 0010952 283.8591 76.1485 16.32711076124802

Satellite not in orbit

CAS-5A (FO-118)